Kenai, AK

12:56 AM AKST on December 15, 2019 (GMT -0900)
Kenai Municipal

Weather History for PAEN - November, 2019

Change the Weather History Date:

Wednesday, November 20, 2019

  Actual Average Record
Temperature  
Mean Temperature 38 °F -  
Max Temperature 44 °F 27 °F 53 °F (2018)
Min Temperature 32 °F 12 °F -17 °F (1993)
Degree Days  
Heating Degree Days 27    
Moisture  
Dew Point 34 °F    
Average Humidity 81    
Maximum Humidity 93    
Minimum Humidity 65    
Precipitation  
Precipitation 0.03 in - - ()
Sea Level Pressure  
Sea Level Pressure 29.17 in    
Wind  
Wind Speed 8 mph (SE)    
Max Wind Speed 18 mph    
Max Gust Speed -    
Visibility 10 miles    
Events Rain    
Averages and records for this station are not official NWS values.
T = Trace of Precipitation, MM = Missing Value Source: NWS Daily Summary

Daily Weather History Graph

Daily Weather History Graph

Search for Another Location

Airport or City:

Astronomy

Nov. 20, 2019 Rise Set
Actual Time 9:19 AM AKST 4:21 PM AKST
Civil Twilight 8:27 AM AKST 5:13 PM AKST
Nautical Twilight 7:33 AM AKST 6:07 PM AKST
Astronomical Twilight 6:43 AM AKST 6:57 PM AKST
Moon No Moon Rise 3:29 PM AKST (11/20)
Length of Visible Light 8h 45m
Length of Day
7h 01m
Last Quarter, 39% of the Moon is Illuminated
Nov 20
Last Quarter
Nov 26
New
Dec 3
First Quarter
Dec 11
Full
Dec 18
Last Quarter

Hourly Weather History & Observations

Time (AKST) Temp. Windchill Dew Point Humidity Pressure Visibility Wind Dir Wind Speed Gust Speed Precip Events Conditions
12:53 AM 39.0 °F 32.8 °F 34.0 °F 82% 29.25 in 10.0 mi ESE 9.2 mph - N/A   Mostly Cloudy
1:53 AM 36.0 °F 30.3 °F 34.0 °F 93% 29.24 in 10.0 mi East 6.9 mph - N/A   Clear
2:53 AM 37.0 °F - 33.1 °F 86% 29.25 in 10.0 mi Calm Calm - N/A   Clear
3:53 AM 32.0 °F 27.5 °F 30.0 °F 92% 29.23 in 10.0 mi NNE 4.6 mph - N/A   Partly Cloudy
4:53 AM 32.0 °F 26.4 °F 30.0 °F 92% 29.21 in 10.0 mi ENE 5.8 mph - N/A   Scattered Clouds
5:53 AM 33.1 °F 26.1 °F 30.0 °F 89% 29.19 in 10.0 mi ENE 8.1 mph - N/A   Clear
6:53 AM 34.0 °F 28.0 °F 30.0 °F 85% 29.17 in 10.0 mi East 6.9 mph - N/A   Scattered Clouds
7:53 AM 35.1 °F 28.6 °F 30.9 °F 85% 29.16 in 10.0 mi ESE 8.1 mph - N/A   Mostly Cloudy
8:53 AM 39.0 °F 32.8 °F 32.0 °F 76% 29.15 in 10.0 mi ESE 9.2 mph - N/A   Mostly Cloudy
9:53 AM 39.0 °F 33.4 °F 33.1 °F 79% 29.14 in 10.0 mi East 8.1 mph - N/A   Partly Cloudy
10:53 AM 42.1 °F 37.1 °F 34.0 °F 73% 29.14 in 10.0 mi SE 8.1 mph - N/A   Scattered Clouds
11:53 AM 43.0 °F 38.2 °F 34.0 °F 71% 29.15 in 10.0 mi SE 8.1 mph - N/A   Overcast
12:53 PM 44.6 °F 39.7 °F 35.6 °F 71% 29.14 in 10.0 mi SSE 9.2 mph - N/A   Mostly Cloudy
1:53 PM 44.6 °F 41.4 °F 35.6 °F 71% 29.14 in 10.0 mi SE 5.8 mph - N/A   Overcast
2:53 PM 44.6 °F 42.2 °F 35.6 °F 71% 29.13 in 10.0 mi SE 4.6 mph - N/A   Partly Cloudy
3:53 PM 43.0 °F 38.8 °F 34.0 °F 71% 29.13 in 10.0 mi East 6.9 mph - N/A   Clear
4:53 PM 42.1 °F 37.7 °F 34.0 °F 73% 29.14 in 10.0 mi SE 6.9 mph - N/A   Clear
5:53 PM 43.0 °F 37.2 °F 32.0 °F 65% 29.16 in 10.0 mi South 10.4 mph - N/A   Overcast
6:53 PM 39.9 °F 30.8 °F 36.0 °F 86% 29.17 in 10.0 mi SSW 18.4 mph - 0.01 in Rain Light Rain
7:26 PM 39.9 °F 33.4 °F 36.0 °F 86% 29.16 in 10.0 mi SSE 10.4 mph - 0.02 in   Overcast
7:39 PM 39.0 °F 32.8 °F 36.0 °F 89% 29.16 in 10.0 mi SE 9.2 mph - 0.02 in   Overcast
7:53 PM 39.0 °F 32.8 °F 36.0 °F 89% 29.16 in 10.0 mi SE 9.2 mph - 0.02 in   Overcast
8:53 PM 39.2 °F 32.5 °F 35.6 °F 87% 29.15 in 10.0 mi SSE 10.4 mph - N/A   Overcast
9:53 PM 39.0 °F 32.8 °F 35.1 °F 86% 29.18 in 10.0 mi SSE 9.2 mph - N/A   Overcast
10:53 PM 39.9 °F 32.5 °F 35.1 °F 83% 29.19 in 10.0 mi SSE 12.7 mph - N/A   Overcast